Regional Weather Roundup
Issued by NWS Wakefield, VA

Home | Current Version | Previous Version | Graphics & Text | Print | Product List | Glossary On
Versions: 1 2 3 4 5 6 7 8 9 10 11 12 13 14 15 16 17 18 19 20 21 22 23 24 25 26 27 28 29 30 31 32 33 34 35 36 37 38 39 40 41 42 43 44 45 46 47 48 49 50
000
ASUS41 KAKQ 262310
RWRAKQ

REGIONAL WEATHER ROUNDUP
NATIONAL WEATHER SERVICE WAKEFIELD VA
600 PM EST WED NOV 26 2014

Note: "fair" indicates few or no clouds below 12,000 feet with no
significant weather and/or obstructions to visibility. * = Denotes
station may not report precipitation (e.g., rain,snow,etc.),
thunder or fog.

VAZ042-051-052>054-056-270000-
NORTHERN VIRGINIA

CITY           SKY/WX    TMP DP  RH WIND       PRES   REMARKS
WASH NATIONAL  LGT RAIN  38  33  82 NW12      29.97S
DULLES         LGT RAIN  34  32  92 NW8       29.96S
FORT BELVOIR   DRIZZLE   36  34  90 NW3       29.97S
QUANTICO       MIX PCPN  36  33  89 N8        29.98S
FREDERICKSBRG* DRIZZLE   37  37 100 NW5       29.96S
STAFFORD*      DRIZZLE   35  35 100 NW3       30.00F
WARRENTON      CLOUDY    35  35 100 CALM      29.96S
CULPEPER*      CLOUDY    36  36 100 NW3       29.97S
MANASSAS*      CLOUDY    36  36 100 N5        29.97F
LEESBURG*      CLOUDY    36  36 100 N9        29.97F
WINCHESTER     CLOUDY    34  32  93 CALM      29.98R
FRONT ROYAL*   NOT AVBL
LURAY*         CLOUDY    34  34 100 CALM      29.97F FOG
$$

VAZ048-049-060>072-079>083-270000-
CENTRAL AND SOUTH CENTRAL VIRGINIA

CITY           SKY/WX    TMP DP  RH WIND       PRES   REMARKS
RICHMOND       LGT RAIN  39  35  86 N13       29.95S
CHESTERFIELD*  CLOUDY    37  27  65 NW9       29.97S
PETERSBURG*    DRIZZLE   39  37  95 NW7       29.97S
HANOVER        CLOUDY    37  35  92 VRB6      29.97S
TAPPAHANNOCK*  DRIZZLE   37  34  87 NW5       29.94S
QUINTON*       CLOUDY    37  35  94 NW7       29.95R
CHARLOTTSVILLE CLOUDY    37  36  96 CALM      29.96S
GORDONSVILLE*  CLOUDY    34  33  97 S3        29.97R
ORANGE*        CLOUDY    36  34  93 S3        29.98S
LOUISA*        CLOUDY    36  34  93 W3        29.96R
BUMPASS*       CLOUDY    37  35  93 N3        29.97R
FARMVILLE*     CLOUDY    38  38 100 CALM        N/A
CREWE*         CLOUDY    37  36  94 NW6       29.98R
FORT PICKETT*  CLOUDY    37  36  97 NW6       29.98R
CHASE CITY*    CLOUDY    39  39 100 CALM      30.00R
CLARKSVILLE*   CLOUDY    37  37 100 N3        30.00R
SOUTH HILL*    CLOUDY    37  36  94 NW3       30.05R
LAWRENCEVILLE* CLOUDY    37  37  97 NW5       29.97R
$$

VAZ088>098-270000-
SOUTHEAST VIRGINIA

CITY           SKY/WX    TMP DP  RH WIND       PRES   REMARKS
NORFOLK        CLOUDY    41  35  79 NW10G24   29.90R
VIRGINIA BEACH CLOUDY    42  38  85 NW14      29.89R
NORFOLK NAVAL  CLOUDY    42  36  79 NW18G28   29.93R
WEST POINT*    CLOUDY    39  37  90 NW7       29.95R
SALUDA*        CLOUDY    38  36  91 NW14G22   29.91R
NEWPORT NEWS   CLOUDY    42  36  79 NW12G29   29.92R
LANGLEY AFB    CLOUDY    39  39 100 NW16G33   29.92R
FORT EUSTIS    CLOUDY    39  39 100 NW14G21   29.91R
WILLIAMSBURG*  CLOUDY    39  39 100 NW9G20    29.94R
HR EXEC AP*    CLOUDY    39  36  87 NW8G21    29.94R
FRANKLIN*      CLOUDY    39  37  93 NW7       29.95S
WAKEFIELD      CLOUDY    39  36  89 VRB7      29.95R
$$

VAZ020-022-025-037-045-270000-
WEST CENTRAL AND SOUTHWEST VIRGINIA

CITY           SKY/WX    TMP DP  RH WIND       PRES   REMARKS
STAUNTON*        N/A    N/A N/A N/A MISG        N/A
WAYNESBORO*    CLOUDY    32  32 100 CALM      29.97R
HOT SPRINGS VA   N/A    N/A N/A N/A MISG        N/A
LYNCHBURG      CLOUDY    38  38 100 SW3       30.00R
DANVILLE       CLOUDY    41  38  89 CALM      30.02R
SOUTH BOSTON*  CLOUDY    40  38  93 CALM      30.02R
MARTINSVILLE   CLOUDY    43  41  91 CALM      30.03R
ROANOKE        CLOUDY    38  35  89 NE5       30.01R
BLACKSBURG     CLOUDY    37  37 100 CALM      29.99R
DUBLIN*        CLOUDY    38  36  91 W3        30.00R
MARION*        MOCLDY    37  35  91 SW6       30.00S
HILLSVILLE*    CLOUDY    35  34  93 W5        29.97R
RICHLANDS*     CLEAR     38  36  93 CALM      29.97S
WISE*          MOCLDY    39  34  81 CALM      29.97F
ABINGDON*      MOCLDY    38  36  92 CALM      29.99S
$$

MDZ021>025-VAZ099-100-270000-
SOUTHERN MARYLAND AND THE DELMARVA PENINSULA

CITY           SKY/WX    TMP DP  RH WIND       PRES   REMARKS
PATUXENT RIVER LGT RAIN  39  36  89 NW20      29.92R
BAY BRIDGE APT LGT RAIN  37  36  93 NW18      29.93R
LEONARDTOWN    CLOUDY    36  34  93 NW7       29.94R
DOVER          LGT RAIN  36  36 100 NW18      29.85R FOG
GEORGETOWN     LGT RAIN  38  37  97 NW12G24   29.85R FOG
EASTON         LGT RAIN  39  39 100 N13G18    29.94R
CAMBRIDGE      CLOUDY    37  36  93 NW17G24   29.90R
SALISBURY      LGT RAIN  40  36  86 NW16G23   29.86R FOG
OCEAN CITY     LGT RAIN  40  38  93 NW14G25   29.81R FOG
WALLOPS ISLAND LGT RAIN  38  37  97 N15G30    29.83S FOG
ACCOMACK*      DRIZZLE   37  36  93 NW21G30   29.86R
$$

NCZ012>017-030>032-270000-
NORTH CENTRAL AND EASTERN NORTH CAROLINA

CITY           SKY/WX    TMP DP  RH WIND       PRES   REMARKS
ROANOKE RAPIDS DRIZZLE   37  36  93 NW8       29.99R
RALEIGH        MOCLDY    42  38  85 CALM      30.02R
ELIZABETH CITY CLOUDY    45  38  76 NW15G24   29.91R
AHOSKIE*       CLOUDY    39  37  90 NW6       29.98R
EDENTON*       CLOUDY    43  39  88 NW12G23   29.94R
CURRITUCK*     CLOUDY    42  39  88 NW9G24    29.90R
KILL DEVIL HLS CLOUDY    45  44  95 W15G24    29.86R
MANTEO         CLOUDY    45  42  91 NW15G24   29.88R
CAPE HATTERAS  CLOUDY    47  45  93 NW17G28   29.89R
TARBORO*       CLOUDY    42  38  87 NW6       30.00R
GOLDSBORO      CLOUDY    44  43  97 NW5       29.99R
WASHINGTON     CLOUDY    43  39  87 NW10      29.98R
GREENVILLE     MOCLDY    43  39  87 NW8       30.01R
NEW BERN       CLOUDY    48  42  80 NW10      29.99R
WILMINGTON     CLOUDY    50  44  80 W13G23    30.02R
$$

VAZ048-270000-
ELSEWHERE

CITY           SKY/WX    TMP DP  RH WIND       PRES   REMARKS
HARRISBURG PA  LGT SNOW  34  32  92 NW14      29.95R FOG     WCI  25
BALTIMORE      LGT RAIN  35  33  92 NW7       29.94R
ANNAPOLIS      LGT RAIN  38  35  89 NW15      29.93R
ANDREWS AFB    LGT RAIN  36  32  87 NW12      29.94S
PHILADELPHIA   LGTSLEET  36  32  85 NW17      29.87R FOG
WILDWOOD NJ*   CLOUDY    39  34  81 NW14G21   29.80R
HENDERSON NC   CLOUDY    39  37  91 N5        30.01R
GREENSBORO     PTCLDY    43  38  82 CALM      30.00R
ROCKY MOUNT    CLOUDY    42  38  85 NW9       30.00R
$$

VAZ100-270000-
MARINE

STATION/POSITION TIME  TEMP    WIND        PRES    WAVE   SWELL
                       AIR SEA DIR/SP/G            HT/PER HT/PER
                 (UTC) (F)     (DEG/KT/KT) (MB)    (FT/S) (FT/S)
CAPE MAY NJ      2300   40 49  320/ 12/ 25 1008.8R
LEWES DE         2300   41 49  320/ 25/ 31 1009.8R
15NM E FENWICK I 2300   43 54              1006.8R  13/ 8
OCEAN-CITY-INLET 2300   40 49  330/ 16/ 21 1009.0R
WACHAPREAGUE VA  2300   40 50  320/  5/ 17 1010.6R
THOMAS POINT MD  2300   38 47  340/ 17/ 19 1014.0R
GOOSES REEF MD   2300   40     350/ 23/ 27 1013.0S
COVE POINT MD    2300   39     350/ 24/ 26 1012.5S
SOLOMONS ISLAND  2300      49                N/A
BISHOPS HEAD MD  2300   38 45  340/ 15/ 21 1011.5F
PINEY POINT MD   2300          350/ 21/ 22   N/A
POTOMAC MD       2300   39     340/ 17/ 23 1011.9R
CAMBRIDGE MD     2300   39 45  330/ 17/ 22 1012.4R
LEWISETTA VA     2300   40 49  340/ 16/ 24 1012.9R
RAPPAHANNOCK LGT 2300          320/ 32/ 35 1011.8R
STINGRAY PT      2300   40     330/ 21/ 25 1012.6R
YORK RVR RNG VA  2300   40     330/ 22/ 27 1012.2R
YORKTOWN VA      2300   40 51  320/ 22/ 26 1012.6R
JAMESTOWN VA     2300   38     350/ 17/ 21   N/A
DOMINION TERM VA 2300   42     330/  9/ 21 1012.5R
KIPTOPEKE VA     2300      56  320/ 26/ 31   N/A
CHES BAY BRIDGE  2300   41 52  300/ 23/ 27 1011.8R
CAPE HENRY VA    2300   42     300/ 24/ 33 1010.6S
CHESAPEAKE LGHT  2200   44     310/ 33/ 35 1011.1R
WILLOUBY STN VA  2300   40     330/ 19/ 24 1011.3R
S CRANEY ISL VA  2300          290/ 13/ 26 1012.6R
CAPE HENRY BUOY  2300      56                N/A     9/ 8   2/11
1ST LANDING BUOY 2300   43     310/ 25/ 31 1011.5R
CAPE CHARLES BUO 2300      55                N/A     8/ 8   5/ 8
64NM E OF VA BCH 2300   50 62  310/ 29/ 35 1007.4R  11/ 8   8/ 8
DUCK PIER NC     2300   44 56  300/ 22/ 27 1010.7R
44100 DUCK FRF   2300      59                N/A    10/ 8   2/11
44056 DUCK FRF   2300      58                N/A     7/ 9   2/11
OREGON INLET NC  2300   47 59  300/ 18/ 24 1011.1R
HATTERAS NC      2300   49 63  320/ 26/ 30 1012.2R
DIAMOND SHLS NC  2300   51     300/ 21/ 27 1011.1R  10/ 9   5/ 9
CAPE LOOKOUT NC  2200   49     310/ 18/ 22 1012.5R
$$



USA.gov is the U.S. government's official web portal to all federal, state and local government web resources and services.